This is the latest recevied weather packets stored in our database for station/object OK1FET-4. If no packets are shown the sender has not sent any weather packets the latest 10 day(s).
| Time | Temp. | Humidity | Pressure | Rain* | Wind** | Luminosity | Snow |
|---|---|---|---|---|---|---|---|
| 1777486613 | 7.78° C | 32% | 1028.1 hPa | - | - | - | - |
| 1777486313 | 8.33° C | 32% | 1027.9 hPa | - | - | - | - |
| 1777486013 | 8.89° C | 32% | 1027.8 hPa | - | - | - | - |
| 1777485713 | 9.44° C | 31% | 1027.7 hPa | - | - | - | - |
| 1777485413 | 9.44° C | 31% | 1027.6 hPa | - | - | - | - |
| 1777485113 | 10° C | 30% | 1027.5 hPa | - | - | - | - |
| 1777484813 | 10.56° C | 30% | 1027.4 hPa | - | - | - | - |
| 1777484513 | 10.56° C | 30% | 1027.3 hPa | - | - | - | - |
| 1777484213 | 10.56° C | 30% | 1027.3 hPa | - | - | - | - |
| 1777483913 | 11.11° C | 30% | 1027.2 hPa | - | - | - | - |
| 1777483612 | 11.11° C | 30% | 1027.1 hPa | - | - | - | - |
| 1777483312 | 11.67° C | 30% | 1026.9 hPa | - | - | - | - |
| 1777483012 | 12.22° C | 29% | 1026.9 hPa | - | - | - | - |
| 1777482712 | 12.22° C | 29% | 1026.8 hPa | - | - | - | - |
| 1777482411 | 12.22° C | 30% | 1026.6 hPa | - | - | - | - |
| 1777482111 | 12.22° C | 30% | 1026.7 hPa | - | - | - | - |
| 1777481811 | 12.78° C | 30% | 1026.5 hPa | - | - | - | - |
| 1777481511 | 12.78° C | 30% | 1026.5 hPa | - | - | - | - |
| 1777481211 | 12.78° C | 29% | 1026.6 hPa | - | - | - | - |
| 1777480910 | 13.33° C | 30% | 1026.5 hPa | - | - | - | - |
| 1777480610 | 13.33° C | 29% | 1026.4 hPa | - | - | - | - |
| 1777480309 | 13.33° C | 29% | 1026.4 hPa | - | - | - | - |
| 1777480009 | 13.33° C | 29% | 1026.1 hPa | - | - | - | - |
| 1777479709 | 13.89° C | 29% | 1026.2 hPa | - | - | - | - |
| 1777479408 | 13.89° C | 29% | 1026.2 hPa | - | - | - | - |
* Rain since midnight (hover to see other rain measurements)
** Current wind speed in m/s (hover to see current wind gust speed)